OK2AF-5 Weather Reports


time (UTC)temp
C
wind
direction
speed
KPH
gust
KPH
rain 1hr
cm
rain 24hr
cm
rain mn
cm
humidity
%
barometer
mb
20260506154642 -17 225 22.5 37.0 0.00 0.03 0.03 1001.9
20260506153741 -17 225 11.3 33.8 0.00 0.03 0.03 1002.1
20260506152841 -17 270 16.1 29.0 0.00 0.03 0.03 1002.0
20260506151939 -17 225 8.0 33.8 0.00 0.03 0.03 1002.0
20260506151037 -17 270 19.3 45.1 0.00 0.03 0.03 1002.2
20260506150136 -17 180 19.3 37.0 0.00 0.03 0.03 1002.3
20260506145236 -17 180 12.9 30.6 0.00 0.03 0.03 1002.3
20260506144336 -17 135 11.3 30.6 0.00 0.03 0.03 1002.7
20260506143435 -17 158 9.7 22.5 0.00 0.03 0.03 1002.7
20260506142531 -17 180 9.7 27.4 0.00 0.03 0.03 1002.9
20260506141631 -17 180 11.3 33.8 0.00 0.03 0.03 1003.0
20260506140730 -17 180 19.3 35.4 0.00 0.03 0.03 1003.0
20260506135828 -17 225 8.0 33.8 0.00 0.03 0.03 1003.0
20260506134927 -17 180 27.4 32.2 0.00 0.03 0.03 1002.9
20260506134027 -17 180 12.9 32.2 0.00 0.03 0.03 1002.9
20260506133122 -17 203 20.9 30.6 0.00 0.03 0.03 1003.3
20260506132221 -17 180 19.3 32.2 0.00 0.03 0.03 1003.3
20260506131320 -17 180 1.6 14.5 0.00 0.03 0.03 1003.4
20260506130419 -17 270 4.8 14.5 0.00 0.03 0.03 1003.6
20260506125518 -17 225 3.2 17.7 0.00 0.03 0.03 1004.0
20260506124616 -17 180 9.7 16.1 0.00 0.03 0.03 1004.1
20260506123720 -17 180 6.4 24.1 0.00 0.03 0.03 1004.2
20260506122825 -17 180 14.5 29.0 0.00 0.03 0.03 1004.2
20260506121930 -17 180 9.7 22.5 0.00 0.03 0.03 1004.0
20260506121035 -17 225 14.5 25.7 0.00 0.03 0.03 1004.1
20260506120139 -17 225 4.8 20.9 0.00 0.03 0.03 1004.2
20260506115242 -17 315 1.6 17.7 0.00 0.03 0.03 1004.1
20260506114347 -17 158 3.2 17.7 0.00 0.03 0.03 1004.3
20260506113453 -17 180 4.8 17.7 0.00 0.03 0.03 1004.3
20260506112558 -17 180 8.0 19.3 0.00 0.03 0.03 1004.4
20260506111702 -17 225 3.2 20.9 0.00 0.03 0.03 1004.7
20260506110808 -17 135 0.0 19.3 0.00 0.03 0.03 1004.5
20260506105917 -17 270 8.0 22.5 0.00 0.03 0.03 1004.8
20260506105023 -17 225 11.3 22.5 0.00 0.03 0.03 1004.7
20260506104128 -17 225 3.2 20.9 0.00 0.03 0.03 1004.7
20260506103230 -17 45 1.6 22.5 0.00 0.03 0.03 1004.9
20260506102333 -17 180 16.1 22.5 0.00 0.03 0.03 1004.9
20260506101439 -17 270 14.5 24.1 0.00 0.03 0.03 1005.3
20260506100540 -17 180 4.8 11.3 0.00 0.03 0.03 1005.2
20260506095644 -17 270 1.6 19.3 0.00 0.03 0.03 1005.4
20260506094749 -17 248 9.7 16.1 0.00 0.03 0.03 1005.4
20260506093855 -17 270 11.3 16.1 0.00 0.03 0.03 1005.4
20260506093000 -17 270 4.8 19.3 0.00 0.03 0.03 1005.3
20260506092107 -17 270 6.4 16.1 0.00 0.03 0.03 1005.4
20260506091213 -17 225 3.2 20.9 0.00 0.03 0.03 1005.3
20260506090319 -17 225 11.3 20.9 0.00 0.03 0.03 1005.4
20260506085426 -17 158 12.9 14.5 0.00 0.03 0.03 1005.1
20260506084530 -17 135 9.7 19.3 0.00 0.03 0.03 1005.6
20260506083636 -17 0 14.5 20.9 0.00 0.03 0.03 1005.7
20260506082741 -17 0 9.7 14.5 0.00 0.03 0.03 1005.8
20260506081844 -17 315 12.9 17.7 0.00 0.03 0.03 1005.7
20260506080949 -17 270 3.2 19.3 0.00 0.03 0.03 1005.9
20260506073407 -17 0 17.7 22.5 0.00 0.03 0.03 1005.8
20260506072514 -17 270 8.0 22.5 0.00 0.03 0.03 1005.9
20260506071621 -17 0 8.0 20.9 0.00 0.03 0.03 1005.8
20260506070721 -17 270 12.9 27.4 0.00 0.03 0.03 1006.1
20260506062252 -17 0 12.9 24.1 0.00 0.03 0.03 1006.0
20260506061359 -17 0 14.5 30.6 0.00 0.03 0.03 1005.9
20260506060506 -17 270 9.7 32.2 0.00 0.03 0.03 1005.9
20260506051137 -17 315 1.6 12.9 0.00 0.03 0.03 1005.9
20260506050245 -17 90 0.0 4.8 0.00 0.03 0.03 1006.2
20260506044456 -17 270 0.0 3.2 0.00 0.03 0.03 1006.4
20260506043558 -17 0 1.6 1.6 0.00 0.03 0.03 1006.7
20260506042703 -17 0 0.0 3.2 0.00 0.03 0.03 1006.5
20260506041807 -17 0 3.2 4.8 0.00 0.03 0.03 1006.5
20260506040912 -17 0 1.6 4.8 0.00 0.03 0.03 1006.6
20260506040019 -17 0 0.0 0.0 0.00 0.03 0.03 1006.5
20260506035122 -17 0 0.0 0.0 0.00 0.03 0.03 1006.4
20260506034228 -17 0 0.0 0.0 0.00 0.03 0.03 1006.4
20260506033334 -17 0 0.0 0.0 0.00 0.03 0.03 1006.2
20260506032440 -17 0 0.0 0.0 0.00 0.03 0.03 1006.2
20260506031546 -17 0 0.0 0.0 0.00 0.03 0.03 1006.3
20260506030648 -17 0 0.0 4.8 0.00 0.03 0.03 1006.2
20260506025753 -17 0 0.0 0.0 0.00 0.03 0.03 1006.3
20260506024857 -17 0 0.0 1.6 0.00 0.03 0.03 1006.1
20260506024003 -17 0 1.6 1.6 0.00 0.03 0.03 1006.0
20260506023108 -17 0 0.0 1.6 0.00 0.03 0.03 1005.8
20260506022214 -17 0 0.0 0.0 0.00 0.03 0.03 1005.7
20260506021319 -17 0 0.0 0.0 0.00 0.03 0.03 1005.6
20260506020424 -17 0 1.6 3.2 0.00 0.03 0.03 1005.5
20260506015528 -17 0 0.0 4.8 0.03 0.03 0.03 1005.3
20260506014631 -17 0 3.2 6.4 0.03 0.03 0.03 1005.2
20260506013736 -17 0 3.2 4.8 0.03 0.03 0.03 1005.2
20260506012835 -17 0 3.2 3.2 0.03 0.03 0.03 1005.2
20260506011941 -17 0 1.6 6.4 0.03 0.03 0.03 1005.2
20260506011047 -17 0 1.6 11.3 0.00 0.00 0.00 1005.1
20260506010152 -17 0 8.0 8.0 0.00 0.00 0.00 1005.0
20260506005257 -17 45 4.8 11.3 0.00 0.00 0.00 1005.0
20260506004403 -17 0 0.0 6.4 0.00 0.00 0.00 1005.2
20260506003505 -17 203 3.2 4.8 0.00 0.00 0.00 1005.2
20260506002611 -17 315 1.6 8.0 0.00 0.00 0.00 1005.1
20260506001711 -17 315 6.4 8.0 0.00 0.00 0.00 1004.9
20260506000816 -17 0 4.8 8.0 0.00 0.00 0.00 1004.7
20260505235916 -17 0 3.2 6.4 0.00 0.00 0.00 1004.9
20260505235021 -17 270 1.6 3.2 0.00 0.00 0.00 1004.9
20260505234127 -17 270 1.6 4.8 0.00 0.00 0.00 1004.8
20260505233234 -17 203 3.2 3.2 0.00 0.00 0.00 1004.7
20260505232339 -17 225 3.2 22.5 0.00 0.00 0.00 1004.6
20260505231445 -17 270 3.2 12.9 0.00 0.00 0.00 1004.5
20260505230550 -17 180 6.4 12.9 0.00 0.00 0.00 1004.3
20260505225633 -17 225 3.2 9.7 0.00 0.00 0.00 1004.3
20260505224734 -17 180 4.8 14.5 0.00 0.00 0.00 1004.3
20260505223839 -17 225 6.4 20.9 0.00 0.00 0.00 1004.2
20260505222946 -17 180 8.0 14.5 0.00 0.00 0.00 1003.9
20260505222051 -17 180 16.1 19.3 0.00 0.00 0.00 1004.0
20260505221159 -17 203 8.0 11.3 0.00 0.00 0.00 1004.0
20260505220304 -17 180 3.2 11.3 0.00 0.00 0.00 1003.8
20260505215411 -17 180 8.0 9.7 0.00 0.00 0.00 1004.0
20260505214518 -17 135 3.2 9.7 0.00 0.00 0.00 1003.9
20260505213623 -17 203 8.0 11.3 0.00 0.00 0.00 1004.0
20260505212728 -17 180 1.6 6.4 0.00 0.00 0.00 1003.9
20260505211833 -17 135 3.2 11.3 0.00 0.00 0.00 1003.9
20260505210936 -17 135 8.0 14.5 0.00 0.00 0.00 1003.8
20260505210044 -17 135 12.9 16.1 0.00 0.00 0.00 1003.8
20260505205150 -17 180 3.2 14.5 0.00 0.00 0.00 1003.9
20260505204257 -17 180 8.0 14.5 0.00 0.00 0.00 1003.8
20260505203402 -17 180 6.4 16.1 0.00 0.00 0.00 1003.8
20260505202509 -17 180 17.7 20.9 0.00 0.00 0.00 1003.7
20260505201611 -17 180 9.7 17.7 0.00 0.00 0.00 1003.7
20260505200717 -17 158 8.0 11.3 0.00 0.00 0.00 1003.7
20260505195816 -17 180 6.4 14.5 0.00 0.00 0.00 1003.6
20260505194915 -17 180 4.8 20.9 0.00 0.00 0.00 1003.7
20260505194013 -17 180 6.4 9.7 0.00 0.00 0.00 1003.7
20260505193113 -17 180 9.7 16.1 0.00 0.00 0.00 1003.5
20260505192212 -17 180 11.3 19.3 0.00 0.00 0.00 1003.4
20260505191312 -17 180 6.4 16.1 0.00 0.00 0.00 1003.4
20260505190412 -17 225 16.1 22.5 0.00 0.00 0.00 1003.2
20260505185511 -17 225 8.0 25.7 0.00 0.00 0.00 1003.0
20260505184610 -17 135 9.7 17.7 0.00 0.00 0.00 1002.9
20260505183709 -17 180 16.1 22.5 0.00 0.00 0.00 1002.8
20260505182808 -17 135 11.3 19.3 0.00 0.00 0.00 1002.7
20260505181908 -17 203 6.4 17.7 0.00 0.00 0.00 1002.9
20260505181002 -17 203 3.2 4.8 0.00 0.00 0.00 1003.1
20260505175200 -17 270 0.0 6.4 0.00 0.00 0.00 1003.1
20260505174257 -17 225 1.6 4.8 0.00 0.00 0.00 1003.0
20260505173357 -17 225 3.2 3.2 0.00 0.00 0.00 1003.0
20260505172453 -17 225 1.6 1.6 0.00 0.00 0.00 1002.9
20260505171551 -17 225 0.0 1.6 0.00 0.00 0.00 1002.8
20260505170650 -17 225 0.0 1.6 0.00 0.00 0.00 1002.6
20260505165750 -17 180 0.0 6.4 0.00 0.00 0.00 1002.6
20260505164848 -17 180 3.2 11.3 0.00 0.00 0.00 1002.4
20260505163948 -17 180 3.2 6.4 0.00 0.00 0.00 1002.5
20260505163047 -17 180 4.8 9.7 0.00 0.00 0.00 1002.6
20260505162146 -17 135 8.0 20.9 0.00 0.00 0.00 1002.6
20260505161246 -17 180 14.5 25.7 0.00 0.00 0.00 1002.6
20260505160346 -17 203 14.5 24.1 0.00 0.00 0.00 1002.5